カタログに戻る

NAVSTAR 83

USA 440

運用中ナビゲーションHEO
NORAD 62339·PAYLOAD·🇺🇸 United States

打ち上げ Dec 17, 2024 から Cape Canaveral Space Force Station

Loading…

次のパス (今後24時間)

TLE

最新Source: CelesTrak SupGP

元期: Sep 17, 2026, 16:38 UTC

1 62339C 24242A   26260.69312500  .00000000  00000+0  00000+0 0  2608
2 62339  54.8029 330.4287 0019494   1.5723  84.3504  2.00574272    19

AllMySatでNAVSTAR 83をリアルタイム追跡

Download on the App Store